Location: Unspecified
(0.0000°N, 0.0000°E)
Time: 13:12:27
(UTC+00:00)

FORMOSAT 3A - Pass Details

Date: 25 May 2026
Orbit: 751 x 823 km, 72.0° (Epoch: 5 June)

Event Time Altitude Azimuth Distance (km) Brightness Sun altitude
Rises 18:26:51 0° 16° (NNE) 3,306 10.4 -7.0°
Reaches altitude 10° 18:30:07 10° 36° (NE) 2,366 9.4 -7.7°
Maximum altitude 18:33:31 17° 75° (ENE) 1,916 8.6 -8.5°
Enters shadow 18:36:28 11° 111° (ESE) 2,254 8.7 -9.2°
